AKJ9531 KBFI-BIKF

Flight info

Callsign AKJ9531
Flight time N/A
Altitude 40000
Route ZIGED DCT YVR/N0461F390 DCT GABIN/N0466F380 DCT RORTU/N0468F390 DCT YOJ DCT 60N108W 63N095W 65N082W 66N070W/M080F390 DCT EPMAN DCT 67N050W 66N040W 64N030W DCT GISTU DCT GIRUG GIRUG3H
Aircraft B38M/M-SDE1FGHILORVWXY/HB1

Departure

Time 2026-04-23 13:12
Airport King County International Airport - Boeing Field (KBFI)

Arrival

Time N/A
Airport Keflavik International Airport (BIKF)
Time Latitude Longitude Altitude Speed Heading
2026-04-23 12:47 47.53514 -122.30960 30 ft 0 kts 240°
2026-04-23 13:08 47.53502 -122.30996 30 ft 8 kts 255°
2026-04-23 13:08 47.53534 -122.31065 30 ft 10 kts 329°
2026-04-23 13:08 47.53603 -122.31125 30 ft 13 kts 327°
2026-04-23 13:08 47.53682 -122.31205 30 ft 14 kts 325°
2026-04-23 13:09 47.53772 -122.31294 30 ft 17 kts 329°
2026-04-23 13:09 47.53867 -122.31374 30 ft 12 kts 330°
2026-04-23 13:09 47.53943 -122.31348 30 ft 12 kts 52°
2026-04-23 13:09 47.53959 -122.31308 30 ft 2 kts 59°
2026-04-23 13:10 47.53974 -122.31271 30 ft 6 kts 59°
2026-04-23 13:10 47.54003 -122.31196 29 ft 10 kts 61°
2026-04-23 13:10 47.53999 -122.31089 29 ft 12 kts 131°
2026-04-23 13:10 47.53982 -122.31071 29 ft 0 kts 150°
2026-04-23 13:11 47.53975 -122.31064 29 ft 6 kts 150°
2026-04-23 13:11 47.53757 -122.30884 28 ft 76 kts 150°
2026-04-23 13:12 47.53085 -122.30316 28 ft 147 kts 149°
2026-04-23 13:12 47.52061 -122.29465 315 ft 187 kts 152°
2026-04-23 13:12 47.50832 -122.28457 1060 ft 210 kts 152°
2026-04-23 13:12 47.49525 -122.27352 1783 ft 243 kts 154°
2026-04-23 13:13 47.48051 -122.26111 3035 ft 244 kts 152°
2026-04-23 13:13 47.46555 -122.24796 4143 ft 255 kts 151°
2026-04-23 13:13 47.44973 -122.23420 5003 ft 272 kts 150°
2026-04-23 13:13 47.43375 -122.21991 6105 ft 274 kts 142°
2026-04-23 13:14 47.42076 -122.19882 7035 ft 284 kts 119°
2026-04-23 13:14 47.41376 -122.17127 8003 ft 283 kts 94°
2026-04-23 13:14 47.41415 -122.14285 8951 ft 284 kts 72°
2026-04-23 13:14 47.42170 -122.11631 9951 ft 276 kts 49°
2026-04-23 13:15 47.43490 -122.09638 10827 ft 275 kts 29°
2026-04-23 13:15 47.45251 -122.08450 11414 ft 284 kts
2026-04-23 13:15 47.47256 -122.08293 11908 ft 298 kts 350°
2026-04-23 13:15 47.49268 -122.09260 12440 ft 312 kts 331°
2026-04-23 13:16 47.51011 -122.11277 13059 ft 326 kts 313°
2026-04-23 13:16 47.52209 -122.14124 14042 ft 330 kts 300°
2026-04-23 13:16 47.53240 -122.17209 14790 ft 337 kts 299°
2026-04-23 13:16 47.54249 -122.20349 15599 ft 341 kts 298°
2026-04-23 13:17 47.55363 -122.23450 16324 ft 343 kts 309°
2026-04-23 13:17 47.57067 -122.25925 17093 ft 344 kts 326°
2026-04-23 13:17 47.59188 -122.27604 17804 ft 349 kts 336°
2026-04-23 13:17 47.61436 -122.29030 18546 ft 354 kts 337°
2026-04-23 13:18 47.63730 -122.30415 19197 ft 358 kts 338°
2026-04-23 13:18 47.66053 -122.31784 19884 ft 360 kts 338°
2026-04-23 13:18 47.68391 -122.33140 20543 ft 364 kts 338°
2026-04-23 13:18 47.70772 -122.34507 21184 ft 367 kts 339°
2026-04-23 13:19 47.73157 -122.35872 21820 ft 370 kts 339°
2026-04-23 13:19 47.75579 -122.37257 22474 ft 373 kts 339°
2026-04-23 13:19 47.78003 -122.38644 23098 ft 377 kts 339°
2026-04-23 13:19 47.80474 -122.40058 23754 ft 380 kts 339°
2026-04-23 13:20 47.82944 -122.41473 24277 ft 383 kts 339°
2026-04-23 13:20 47.85441 -122.42905 24802 ft 385 kts 339°
2026-04-23 13:20 47.87943 -122.44341 25341 ft 387 kts 339°
2026-04-23 13:20 47.90465 -122.45789 25831 ft 390 kts 339°
2026-04-23 13:21 47.93001 -122.47249 26328 ft 392 kts 339°
2026-04-23 13:21 47.95551 -122.48717 26835 ft 394 kts 339°
2026-04-23 13:21 47.98090 -122.50181 27294 ft 397 kts 339°
2026-04-23 13:21 48.00656 -122.51662 27751 ft 399 kts 339°
2026-04-23 13:22 48.03261 -122.53167 28224 ft 402 kts 339°
2026-04-23 13:22 48.05890 -122.54687 28680 ft 404 kts 339°
2026-04-23 13:22 48.08510 -122.56204 29131 ft 407 kts 339°
2026-04-23 13:22 48.11159 -122.57740 29579 ft 409 kts 339°
2026-04-23 13:23 48.13817 -122.59281 30007 ft 411 kts 339°
2026-04-23 13:23 48.16484 -122.60831 30521 ft 411 kts 340°
2026-04-23 13:23 48.19145 -122.62378 31080 ft 408 kts 340°
2026-04-23 13:23 48.21771 -122.63907 31676 ft 403 kts 340°
2026-04-23 13:24 48.24369 -122.65421 32289 ft 399 kts 340°
2026-04-23 13:24 48.26948 -122.66926 32905 ft 395 kts 340°
2026-04-23 13:24 48.29495 -122.68413 33516 ft 390 kts 340°
2026-04-23 13:24 48.32006 -122.69882 34117 ft 386 kts 340°
2026-04-23 13:25 48.34501 -122.71343 34629 ft 383 kts 340°
2026-04-23 13:25 48.36986 -122.72799 34947 ft 385 kts 340°
2026-04-23 13:25 48.39498 -122.74273 35157 ft 388 kts 340°
2026-04-23 13:25 48.42012 -122.75749 35444 ft 390 kts 340°
2026-04-23 13:26 48.44551 -122.77241 35714 ft 392 kts 340°
2026-04-23 13:26 48.47105 -122.78745 35983 ft 394 kts 340°
2026-04-23 13:26 48.49649 -122.80243 36246 ft 396 kts 340°
2026-04-23 13:26 48.52231 -122.81765 36516 ft 397 kts 340°
2026-04-23 13:27 48.54780 -122.83270 36783 ft 399 kts 340°
2026-04-23 13:27 48.57406 -122.84822 37035 ft 401 kts 340°
2026-04-23 13:27 48.60011 -122.86364 37286 ft 402 kts 340°
2026-04-23 13:27 48.62616 -122.87907 37546 ft 404 kts 340°
2026-04-23 13:28 48.65235 -122.89460 37795 ft 405 kts 340°
2026-04-23 13:28 48.67834 -122.91002 38030 ft 406 kts 339°
2026-04-23 13:28 48.70468 -122.92568 38282 ft 407 kts 339°
2026-04-23 13:28 48.73146 -122.94161 38533 ft 409 kts 339°
2026-04-23 13:29 48.75784 -122.95733 38773 ft 409 kts 339°
2026-04-23 13:29 48.78442 -122.97318 38975 ft 410 kts 339°
2026-04-23 13:29 48.81067 -122.98885 39149 ft 411 kts 339°
2026-04-23 13:29 48.83731 -123.00478 39347 ft 411 kts 339°
2026-04-23 13:30 48.86394 -123.02071 39519 ft 412 kts 339°
2026-04-23 13:30 48.89060 -123.03668 39702 ft 412 kts 339°
2026-04-23 13:30 48.91725 -123.05265 39876 ft 412 kts 339°
2026-04-23 13:30 48.94396 -123.06868 40052 ft 413 kts 339°
2026-04-23 13:31 48.97061 -123.08470 40182 ft 413 kts 339°
2026-04-23 13:31 48.99798 -123.09786 40195 ft 411 kts 351°
2026-04-23 13:31 49.02648 -123.09949 40223 ft 412 kts
2026-04-23 13:31 49.05444 -123.08984 40220 ft 417 kts 17°
2026-04-23 13:32 49.08078 -123.07071 40223 ft 422 kts 28°
2026-04-23 13:32 49.12675 -123.01407 40211 ft 433 kts 46°
2026-04-23 13:33 49.16245 -122.93888 40218 ft 439 kts 51°
2026-04-23 13:33 49.19593 -122.86030 40223 ft 441 kts 52°
2026-04-23 13:34 49.22869 -122.78083 40221 ft 442 kts 52°
2026-04-23 13:34 49.26125 -122.70101 40225 ft 442 kts 52°
2026-04-23 13:35 49.29380 -122.62092 40227 ft 443 kts 52°
2026-04-23 13:35 49.32627 -122.54079 40223 ft 443 kts 52°
2026-04-23 13:36 49.35868 -122.46055 40202 ft 443 kts 53°
2026-04-23 13:36 49.39113 -122.37997 40216 ft 444 kts 53°
2026-04-23 13:37 49.42329 -122.29986 40206 ft 443 kts 53°
2026-04-23 13:37 49.45585 -122.21852 40208 ft 445 kts 53°
2026-04-23 13:38 49.48805 -122.13782 40215 ft 446 kts 53°
2026-04-23 13:38 49.52049 -122.05629 40195 ft 446 kts 53°
2026-04-23 13:39 49.55283 -121.97475 40210 ft 447 kts 53°
2026-04-23 13:39 49.58518 -121.89291 40204 ft 448 kts 53°
2026-04-23 13:40 49.61753 -121.81084 40207 ft 448 kts 53°
2026-04-23 13:40 49.64441 -121.74244 40201 ft 449 kts 53°
2026-04-23 13:41 49.67673 -121.65997 40235 ft 450 kts 53°
2026-04-23 13:41 49.70901 -121.57733 40217 ft 450 kts 53°
2026-04-23 13:42 49.74135 -121.49428 40205 ft 451 kts 53°
2026-04-23 13:42 49.77367 -121.41102 40208 ft 452 kts 54°
2026-04-23 13:43 49.80592 -121.32767 40213 ft 452 kts 54°
2026-04-23 13:43 49.83820 -121.24400 40206 ft 453 kts 54°
2026-04-23 13:44 49.87042 -121.16028 40203 ft 453 kts 54°
2026-04-23 13:44 49.90284 -121.07621 40196 ft 453 kts 51°
2026-04-23 13:44 49.92287 -121.03956 40183 ft 441 kts 36°
2026-04-23 13:45 49.94787 -121.01287 40195 ft 434 kts 23°
2026-04-23 13:45 50.00445 -120.98239 40180 ft 428 kts
2026-04-23 13:46 50.06355 -120.98033 40190 ft 426 kts 356°
2026-04-23 13:46 50.12276 -120.98545 40198 ft 427 kts 354°
2026-04-23 13:47 50.18216 -120.99239 40203 ft 427 kts 353°
2026-04-23 13:47 50.24147 -120.99986 40203 ft 428 kts 353°
2026-04-23 13:48 50.30083 -121.00744 40199 ft 428 kts 353°
2026-04-23 13:48 50.35972 -121.01497 40203 ft 428 kts 353°
2026-04-23 13:49 50.41902 -121.02257 40213 ft 428 kts 353°
2026-04-23 13:49 50.47890 -121.03027 40215 ft 428 kts 353°
2026-04-23 13:50 50.53780 -121.03786 40212 ft 428 kts 353°
2026-04-23 13:50 50.59706 -121.04552 40214 ft 428 kts 353°
2026-04-23 13:51 50.65652 -121.05321 40216 ft 428 kts 353°
2026-04-23 13:51 50.71577 -121.06091 40215 ft 427 kts 353°
2026-04-23 13:52 50.77496 -121.06862 40216 ft 427 kts 353°
2026-04-23 13:52 50.83412 -121.07635 40220 ft 427 kts 353°
2026-04-23 13:53 50.89338 -121.08409 40222 ft 427 kts 353°
2026-04-23 13:53 50.95196 -121.09178 40223 ft 426 kts 353°
2026-04-23 13:54 51.01103 -121.09956 40225 ft 426 kts 353°
2026-04-23 13:54 51.07017 -121.10735 40225 ft 426 kts 353°
2026-04-23 13:55 51.12923 -121.11516 40230 ft 426 kts 353°
2026-04-23 13:55 51.18815 -121.12297 40231 ft 425 kts 353°
2026-04-23 13:56 51.24711 -121.13080 40238 ft 425 kts 353°
2026-04-23 13:56 51.30597 -121.13865 40238 ft 424 kts 353°
2026-04-23 13:57 51.36480 -121.14651 40242 ft 424 kts 353°
2026-04-23 13:57 51.42368 -121.15440 40241 ft 424 kts 353°
2026-04-23 13:58 51.48245 -121.16229 40240 ft 424 kts 353°
2026-04-23 13:58 51.54121 -121.17019 40239 ft 424 kts 353°
2026-04-23 13:59 51.59991 -121.17813 40244 ft 423 kts 353°
2026-04-23 13:59 51.65853 -121.18606 40244 ft 423 kts 353°
2026-04-23 14:00 51.70724 -121.19266 40244 ft 422 kts 353°
2026-04-23 14:00 51.77565 -121.20198 40255 ft 422 kts 353°
2026-04-23 14:01 51.83376 -121.20990 40244 ft 421 kts 353°
2026-04-23 14:01 51.89255 -121.21795 40249 ft 422 kts 353°
2026-04-23 14:02 51.95078 -121.22593 40245 ft 422 kts 353°
2026-04-23 14:02 52.00939 -121.23398 40251 ft 423 kts 353°
2026-04-23 14:03 52.06795 -121.24205 40257 ft 423 kts 353°
2026-04-23 14:03 52.12661 -121.25016 40271 ft 423 kts 353°
2026-04-23 14:04 52.18535 -121.25830 40268 ft 423 kts 353°
2026-04-23 14:04 52.24409 -121.26646 40271 ft 423 kts 353°
2026-04-23 14:05 52.30275 -121.27463 40266 ft 423 kts 353°
2026-04-23 14:05 52.36144 -121.28282 40273 ft 423 kts 353°
2026-04-23 14:06 52.41991 -121.29102 40267 ft 423 kts 353°
2026-04-23 14:06 52.47873 -121.29927 40269 ft 424 kts 353°
2026-04-23 14:07 52.53752 -121.30756 40268 ft 424 kts 353°
2026-04-23 14:07 52.62575 -121.32002 40277 ft 424 kts 353°
2026-04-23 14:08 52.68457 -121.32835 40281 ft 425 kts 353°
2026-04-23 14:08 52.74353 -121.33673 40288 ft 425 kts 353°
2026-04-23 14:09 52.80208 -121.34508 40280 ft 426 kts 353°
2026-04-23 14:09 52.86118 -121.35352 40286 ft 426 kts 353°
2026-04-23 14:10 52.92019 -121.36198 40298 ft 426 kts 353°
2026-04-23 14:10 52.97930 -121.37047 40300 ft 426 kts 353°
2026-04-23 14:11 53.03838 -121.37898 40306 ft 427 kts 353°
2026-04-23 14:11 53.09752 -121.38752 40307 ft 427 kts 353°
2026-04-23 14:12 53.15677 -121.39611 40318 ft 427 kts 353°
2026-04-23 14:12 53.21593 -121.40470 40318 ft 427 kts 353°
2026-04-23 14:13 53.27511 -121.41332 40321 ft 427 kts 353°
2026-04-23 14:13 53.33436 -121.42198 40320 ft 427 kts 353°
2026-04-23 14:14 53.39357 -121.43065 40331 ft 427 kts 353°
2026-04-23 14:14 53.45265 -121.43933 40335 ft 427 kts 353°
2026-04-23 14:15 53.51201 -121.44807 40344 ft 428 kts 353°
2026-04-23 14:15 53.57136 -121.45685 40341 ft 428 kts 353°
2026-04-23 14:16 53.63056 -121.46561 40340 ft 428 kts 353°
2026-04-23 14:16 53.68987 -121.47442 40342 ft 427 kts 353°
2026-04-23 14:17 53.74900 -121.48324 40339 ft 427 kts 353°
2026-04-23 14:17 53.80840 -121.49211 40346 ft 427 kts 353°
2026-04-23 14:18 53.86747 -121.50096 40345 ft 427 kts 353°
2026-04-23 14:18 53.92671 -121.50987 40345 ft 427 kts 353°
2026-04-23 14:19 53.98565 -121.51875 40349 ft 426 kts 354°
2026-04-23 14:19 54.04493 -121.52770 40357 ft 426 kts 354°
2026-04-23 14:20 54.10398 -121.53665 40354 ft 426 kts 354°
2026-04-23 14:20 54.16289 -121.54560 40367 ft 425 kts 353°
2026-04-23 14:21 54.22187 -121.55460 40359 ft 425 kts 354°
2026-04-23 14:21 54.28078 -121.56360 40352 ft 425 kts 354°
2026-04-23 14:22 54.33929 -121.57257 40359 ft 425 kts 354°
2026-04-23 14:22 54.39813 -121.58162 40365 ft 425 kts 354°
2026-04-23 14:23 54.45717 -121.59072 40372 ft 425 kts 354°
2026-04-23 14:23 54.51613 -121.59985 40365 ft 425 kts 354°
2026-04-23 14:24 54.57495 -121.60895 40375 ft 425 kts 354°
2026-04-23 14:24 54.63389 -121.61812 40372 ft 426 kts 354°
2026-04-23 14:25 54.69303 -121.62734 40369 ft 426 kts 354°
2026-04-23 14:25 54.75211 -121.63658 40379 ft 426 kts 354°
2026-04-23 14:26 54.81102 -121.64581 40376 ft 426 kts 354°
2026-04-23 14:26 54.86027 -121.65355 40391 ft 427 kts 354°
2026-04-23 14:27 54.91940 -121.66288 40389 ft 427 kts 354°
2026-04-23 14:27 54.97859 -121.67223 40387 ft 427 kts 354°
2026-04-23 14:28 55.03775 -121.68162 40387 ft 427 kts 354°
2026-04-23 14:28 55.09681 -121.67840 40386 ft 430 kts 15°
2026-04-23 14:29 55.12443 -121.65775 40384 ft 435 kts 27°
2026-04-23 14:29 55.15042 -121.63076 40382 ft 438 kts 28°
2026-04-23 14:29 55.20177 -121.57283 40377 ft 440 kts 30°
2026-04-23 14:30 55.25258 -121.51284 40374 ft 441 kts 31°
2026-04-23 14:30 55.30327 -121.45211 40367 ft 441 kts 31°
2026-04-23 14:31 55.35397 -121.39106 40359 ft 442 kts 31°
2026-04-23 14:31 55.40464 -121.32987 40349 ft 442 kts 31°
2026-04-23 14:32 55.45535 -121.26843 40340 ft 443 kts 31°
2026-04-23 14:32 55.50605 -121.20682 40336 ft 443 kts 31°
2026-04-23 14:33 55.55682 -121.14490 40337 ft 443 kts 31°
2026-04-23 14:33 55.60747 -121.08294 40339 ft 443 kts 32°
2026-04-23 14:34 55.65824 -121.02064 40338 ft 444 kts 32°
2026-04-23 14:34 55.70889 -120.95829 40344 ft 444 kts 32°
2026-04-23 14:35 55.75962 -120.89564 40344 ft 444 kts 32°
2026-04-23 14:35 55.81011 -120.83307 40344 ft 444 kts 32°
2026-04-23 14:36 55.86051 -120.77043 40342 ft 444 kts 32°
2026-04-23 14:36 55.91113 -120.70730 40337 ft 443 kts 32°
2026-04-23 14:37 55.96189 -120.64378 40311 ft 443 kts 32°
2026-04-23 14:37 56.01199 -120.58090 40304 ft 443 kts 32°
2026-04-23 14:38 56.06239 -120.51742 40292 ft 443 kts 32°
2026-04-23 14:38 56.11276 -120.45379 40290 ft 443 kts 32°
2026-04-23 14:39 56.16302 -120.39009 40293 ft 443 kts 32°
2026-04-23 14:39 56.21329 -120.32615 40301 ft 443 kts 32°
2026-04-23 14:40 56.26358 -120.26198 40314 ft 443 kts 32°
2026-04-23 14:40 56.31372 -120.19781 40329 ft 443 kts 32°
2026-04-23 14:41 56.36390 -120.13336 40345 ft 443 kts 33°
2026-04-23 14:41 56.41417 -120.06859 40342 ft 443 kts 33°
2026-04-23 14:42 56.46431 -120.00375 40344 ft 443 kts 33°
2026-04-23 14:42 56.51448 -119.93868 40343 ft 444 kts 33°
2026-04-23 14:43 56.56462 -119.87343 40343 ft 444 kts 33°
2026-04-23 14:43 56.61481 -119.80789 40343 ft 444 kts 33°
2026-04-23 14:44 56.66492 -119.74224 40343 ft 445 kts 33°
2026-04-23 14:44 56.71510 -119.67627 40339 ft 445 kts 33°
2026-04-23 14:45 56.76528 -119.61008 40344 ft 446 kts 33°
2026-04-23 14:45 56.81499 -119.54429 40344 ft 446 kts 33°
2026-04-23 14:46 56.86535 -119.47742 40343 ft 447 kts 33°
2026-04-23 14:46 56.91571 -119.41032 40342 ft 447 kts 33°
2026-04-23 14:47 56.96597 -119.34312 40344 ft 448 kts 33°
2026-04-23 14:47 57.01671 -119.27505 40348 ft 449 kts 33°
2026-04-23 14:48 57.06690 -119.20747 40347 ft 449 kts 33°
2026-04-23 14:48 57.11702 -119.13977 40350 ft 450 kts 33°
2026-04-23 14:49 57.16758 -119.07123 40350 ft 450 kts 34°
2026-04-23 14:49 57.21805 -119.00258 40350 ft 451 kts 34°
2026-04-23 14:50 57.26851 -118.93370 40349 ft 452 kts 34°
2026-04-23 14:50 57.31891 -118.86468 40354 ft 452 kts 34°
2026-04-23 14:51 57.36949 -118.79516 40354 ft 453 kts 34°
2026-04-23 14:51 57.42011 -118.72533 40357 ft 453 kts 34°
2026-04-23 14:52 57.47065 -118.65537 40357 ft 453 kts 34°
2026-04-23 14:52 57.52115 -118.58521 40358 ft 454 kts 34°
2026-04-23 14:53 57.57165 -118.51480 40361 ft 454 kts 34°
2026-04-23 14:53 57.62227 -118.44400 40367 ft 455 kts 34°
2026-04-23 14:54 57.67289 -118.37292 40366 ft 455 kts 34°
2026-04-23 14:54 57.72346 -118.30166 40372 ft 455 kts 35°
2026-04-23 14:55 57.77399 -118.23021 40368 ft 456 kts 35°
2026-04-23 14:55 57.82462 -118.15834 40373 ft 456 kts 35°
2026-04-23 14:56 57.87512 -118.08642 40374 ft 456 kts 35°
2026-04-23 14:56 57.92574 -118.01404 40377 ft 457 kts 35°
2026-04-23 14:57 57.96023 -117.96459 40376 ft 457 kts 35°
2026-04-23 14:57 57.97411 -117.94465 40374 ft 457 kts 35°
2026-04-23 14:58 58.02464 -117.87191 40377 ft 457 kts 35°
2026-04-23 14:58 58.07483 -117.79938 40378 ft 458 kts 35°
2026-04-23 14:59 58.12577 -117.72551 40370 ft 458 kts 36°
2026-04-23 14:59 58.17595 -117.65246 40369 ft 458 kts 36°
2026-04-23 15:00 58.22651 -117.57862 40368 ft 459 kts 36°
2026-04-23 15:00 58.27703 -117.50460 40367 ft 459 kts 36°
2026-04-23 15:01 58.32759 -117.43026 40357 ft 459 kts 36°
2026-04-23 15:01 58.37806 -117.35578 40343 ft 460 kts 36°
2026-04-23 15:02 58.42858 -117.28094 40321 ft 460 kts 36°
2026-04-23 15:02 58.47916 -117.20577 40307 ft 461 kts 36°
2026-04-23 15:03 58.52927 -117.12936 40292 ft 462 kts 41°
2026-04-23 15:03 58.55018 -117.08293 40287 ft 464 kts 56°
2026-04-23 15:03 58.56509 -117.02776 40303 ft 467 kts 65°
2026-04-23 15:04 58.59007 -116.91248 40302 ft 470 kts 66°
2026-04-23 15:04 58.61383 -116.79568 40312 ft 470 kts 67°
2026-04-23 15:05 58.63713 -116.67838 40321 ft 471 kts 68°
2026-04-23 15:05 58.66032 -116.56080 40328 ft 471 kts 68°
2026-04-23 15:06 58.68338 -116.44318 40336 ft 471 kts 68°
2026-04-23 15:06 58.70629 -116.32559 40335 ft 472 kts 68°
2026-04-23 15:07 58.72915 -116.20758 40333 ft 472 kts 68°
2026-04-23 15:07 58.75218 -116.08803 40334 ft 473 kts 68°